Year,Month,Day,Hour,Minute,Value (Times are PST for temperature in C)
2011,04,23,00,00,6.50
2011,04,23,00,01,6.50
2011,04,23,00,02,6.50
2011,04,23,00,03,6.50
2011,04,23,00,04,6.50
2011,04,23,00,05,6.40
2011,04,23,00,06,6.40
2011,04,23,00,07,6.40
2011,04,23,00,08,6.40
2011,04,23,00,09,6.40
2011,04,23,00,10,6.50
2011,04,23,00,11,6.50
2011,04,23,00,12,6.50
2011,04,23,00,13,6.50
2011,04,23,00,14,6.50
2011,04,23,00,15,6.50
2011,04,23,00,16,6.50
2011,04,23,00,17,6.50
2011,04,23,00,18,6.50
2011,04,23,00,19,6.50
2011,04,23,00,20,6.50
2011,04,23,00,21,6.60
2011,04,23,00,22,6.60
2011,04,23,00,23,6.60
2011,04,23,00,24,6.60
2011,04,23,00,25,6.60
2011,04,23,00,26,6.60
2011,04,23,00,27,6.60
2011,04,23,00,28,6.60
2011,04,23,00,29,6.60
2011,04,23,00,30,6.60
2011,04,23,00,31,6.60
2011,04,23,00,32,6.60
2011,04,23,00,33,6.60
2011,04,23,00,34,6.60
2011,04,23,00,35,6.60
2011,04,23,00,36,6.50
2011,04,23,00,37,6.50
2011,04,23,00,38,6.50
2011,04,23,00,39,6.50
2011,04,23,00,40,6.50
2011,04,23,00,41,6.50
2011,04,23,00,42,6.50
2011,04,23,00,43,6.50
2011,04,23,00,44,6.50
2011,04,23,00,45,6.50
2011,04,23,00,46,6.50
2011,04,23,00,47,6.50
2011,04,23,00,48,6.50
2011,04,23,00,49,6.50
2011,04,23,00,50,6.40
2011,04,23,00,51,6.40
2011,04,23,00,52,6.40
2011,04,23,00,53,6.40
2011,04,23,00,54,6.30
2011,04,23,00,55,6.30
2011,04,23,00,56,6.20
2011,04,23,00,57,6.20
2011,04,23,00,58,6.10
2011,04,23,00,59,6.10
2011,04,23,01,00,6.00
2011,04,23,01,01,6.00
2011,04,23,01,02,6.00
2011,04,23,01,03,5.90
2011,04,23,01,04,5.90
2011,04,23,01,05,5.90
2011,04,23,01,06,5.90
2011,04,23,01,07,5.90
2011,04,23,01,08,5.90
2011,04,23,01,09,5.90
2011,04,23,01,10,5.90
2011,04,23,01,11,5.90
2011,04,23,01,12,5.90
2011,04,23,01,13,5.80
2011,04,23,01,14,5.80
2011,04,23,01,15,5.80
2011,04,23,01,16,5.80
2011,04,23,01,17,5.70
2011,04,23,01,18,5.70
2011,04,23,01,19,5.60
2011,04,23,01,20,5.60
2011,04,23,01,21,5.50
2011,04,23,01,22,5.50
2011,04,23,01,23,5.40
2011,04,23,01,24,5.40
2011,04,23,01,25,5.40
2011,04,23,01,26,5.30
2011,04,23,01,27,5.30
2011,04,23,01,28,5.30
2011,04,23,01,29,5.20
2011,04,23,01,30,5.20
2011,04,23,01,31,5.20
2011,04,23,01,32,5.20
2011,04,23,01,33,5.20
2011,04,23,01,34,5.10
2011,04,23,01,35,5.10
2011,04,23,01,36,5.10
2011,04,23,01,37,5.10
2011,04,23,01,38,5.10
2011,04,23,01,39,5.10
2011,04,23,01,40,5.10
2011,04,23,01,41,5.00
2011,04,23,01,42,5.00
2011,04,23,01,43,5.00
2011,04,23,01,44,5.00
2011,04,23,01,45,5.00
2011,04,23,01,46,5.00
2011,04,23,01,47,5.00
2011,04,23,01,48,5.00
2011,04,23,01,49,5.10
2011,04,23,01,50,5.10
2011,04,23,01,51,5.10
2011,04,23,01,52,5.10
2011,04,23,01,53,5.10
2011,04,23,01,54,5.10
2011,04,23,01,55,5.10
2011,04,23,01,56,5.10
2011,04,23,01,57,5.10
2011,04,23,01,58,5.10
2011,04,23,01,59,5.10
2011,04,23,02,00,5.10
2011,04,23,02,01,5.00
2011,04,23,02,02,5.00
2011,04,23,02,03,5.00
2011,04,23,02,04,4.90
2011,04,23,02,05,4.90
2011,04,23,02,06,4.90
2011,04,23,02,07,4.90
2011,04,23,02,08,4.80
2011,04,23,02,09,4.80
2011,04,23,02,10,4.80
2011,04,23,02,11,4.80
2011,04,23,02,12,4.80
2011,04,23,02,13,4.80
2011,04,23,02,14,4.80
2011,04,23,02,15,4.80
2011,04,23,02,16,4.90
2011,04,23,02,17,4.90
2011,04,23,02,18,4.90
2011,04,23,02,19,4.90
2011,04,23,02,20,4.90
2011,04,23,02,21,4.90
2011,04,23,02,22,4.90
2011,04,23,02,23,5.00
2011,04,23,02,24,5.00
2011,04,23,02,25,5.10
2011,04,23,02,26,5.10
2011,04,23,02,27,5.10
2011,04,23,02,28,5.10
2011,04,23,02,29,5.10
2011,04,23,02,30,5.10
2011,04,23,02,31,5.10
2011,04,23,02,32,5.10
2011,04,23,02,33,5.10
2011,04,23,02,34,5.10
2011,04,23,02,35,5.10
2011,04,23,02,36,5.10
2011,04,23,02,37,5.00
2011,04,23,02,38,5.00
2011,04,23,02,39,5.00
2011,04,23,02,40,5.00
2011,04,23,02,41,5.00
2011,04,23,02,42,5.00
2011,04,23,02,43,5.00
2011,04,23,02,44,5.00
2011,04,23,02,45,5.00
2011,04,23,02,46,5.00
2011,04,23,02,47,5.00
2011,04,23,02,48,5.00
2011,04,23,02,49,5.00
2011,04,23,02,50,4.90
2011,04,23,02,51,4.90
2011,04,23,02,52,4.90
2011,04,23,02,53,4.80
2011,04,23,02,54,4.80
2011,04,23,02,55,4.80
2011,04,23,02,56,4.70
2011,04,23,02,57,4.70
2011,04,23,02,58,4.70
2011,04,23,02,59,4.70
2011,04,23,03,00,4.70
2011,04,23,03,01,4.60
2011,04,23,03,02,4.60
2011,04,23,03,03,4.60
2011,04,23,03,04,4.50
2011,04,23,03,05,4.50
2011,04,23,03,06,4.40
2011,04,23,03,07,4.40
2011,04,23,03,08,4.40
2011,04,23,03,09,4.40
2011,04,23,03,10,4.40
2011,04,23,03,11,4.40
2011,04,23,03,12,4.40
2011,04,23,03,13,4.40
2011,04,23,03,14,4.40
2011,04,23,03,15,4.40
2011,04,23,03,16,4.40
2011,04,23,03,17,4.40
2011,04,23,03,18,4.50
2011,04,23,03,19,4.50
2011,04,23,03,20,4.50
2011,04,23,03,21,4.50
2011,04,23,03,22,4.50
2011,04,23,03,23,4.50
2011,04,23,03,24,4.50
2011,04,23,03,25,4.50
2011,04,23,03,26,4.50
2011,04,23,03,27,4.50
2011,04,23,03,28,4.60
2011,04,23,03,29,4.60
2011,04,23,03,30,4.60
2011,04,23,03,31,4.60
2011,04,23,03,32,4.60
2011,04,23,03,33,4.60
2011,04,23,03,34,4.60
2011,04,23,03,35,4.50
2011,04,23,03,36,4.50
2011,04,23,03,37,4.40
2011,04,23,03,38,4.40
2011,04,23,03,39,4.30
2011,04,23,03,40,4.30
2011,04,23,03,41,4.30
2011,04,23,03,42,4.30
2011,04,23,03,43,4.30
2011,04,23,03,44,4.30
2011,04,23,03,45,4.30
2011,04,23,03,46,4.30
2011,04,23,03,47,4.30
2011,04,23,03,48,4.30
2011,04,23,03,49,4.30
2011,04,23,03,50,4.30
2011,04,23,03,51,4.30
2011,04,23,03,52,4.40
2011,04,23,03,53,4.40
2011,04,23,03,54,4.50
2011,04,23,03,55,4.60
2011,04,23,03,56,4.60
2011,04,23,03,57,4.70
2011,04,23,03,58,4.80
2011,04,23,03,59,4.90
2011,04,23,04,00,4.90
2011,04,23,04,01,5.00
2011,04,23,04,02,5.10
2011,04,23,04,03,5.10
2011,04,23,04,04,5.20
2011,04,23,04,05,5.20
2011,04,23,04,06,5.20
2011,04,23,04,07,5.20
2011,04,23,04,08,5.20
2011,04,23,04,09,5.20
2011,04,23,04,10,5.30
2011,04,23,04,11,5.30
2011,04,23,04,12,5.30
2011,04,23,04,13,5.30
2011,04,23,04,14,5.30
2011,04,23,04,15,5.30
2011,04,23,04,16,5.30
2011,04,23,04,17,5.30
2011,04,23,04,18,5.30
2011,04,23,04,19,5.30
2011,04,23,04,20,5.20
2011,04,23,04,21,5.30
2011,04,23,04,22,5.30
2011,04,23,04,23,5.30
2011,04,23,04,24,5.30
2011,04,23,04,25,5.30
2011,04,23,04,26,5.30
2011,04,23,04,27,5.30
2011,04,23,04,28,5.30
2011,04,23,04,29,5.30
2011,04,23,04,30,5.30
2011,04,23,04,31,5.30
2011,04,23,04,32,5.30
2011,04,23,04,33,5.30
2011,04,23,04,34,5.30
2011,04,23,04,35,5.30
2011,04,23,04,36,5.30
2011,04,23,04,37,5.30
2011,04,23,04,38,5.30
2011,04,23,04,39,5.30
2011,04,23,04,40,5.20
2011,04,23,04,41,5.20
2011,04,23,04,42,5.20
2011,04,23,04,43,5.20
2011,04,23,04,44,5.20
2011,04,23,04,45,5.10
2011,04,23,04,46,5.10
2011,04,23,04,47,5.10
2011,04,23,04,48,5.10
2011,04,23,04,49,5.10
2011,04,23,04,50,5.10
2011,04,23,04,51,5.10
2011,04,23,04,52,5.00
2011,04,23,04,53,5.00
2011,04,23,04,54,5.00
2011,04,23,04,55,5.00
2011,04,23,04,56,4.90
2011,04,23,04,57,4.90
2011,04,23,04,58,4.90
2011,04,23,04,59,4.90
2011,04,23,05,00,4.90
2011,04,23,05,01,4.90
2011,04,23,05,02,4.90
2011,04,23,05,03,4.90
2011,04,23,05,04,4.90
2011,04,23,05,05,4.90
2011,04,23,05,06,4.90
2011,04,23,05,07,4.90
2011,04,23,05,08,4.90
2011,04,23,05,09,4.90
2011,04,23,05,10,5.00
2011,04,23,05,11,5.00
2011,04,23,05,12,5.00
2011,04,23,05,13,5.00
2011,04,23,05,14,5.00
2011,04,23,05,15,5.00
2011,04,23,05,16,5.00
2011,04,23,05,17,5.10
2011,04,23,05,18,5.10
2011,04,23,05,19,5.10
2011,04,23,05,20,5.00
2011,04,23,05,21,5.00
2011,04,23,05,22,5.00
2011,04,23,05,23,5.00
2011,04,23,05,24,5.00
2011,04,23,05,25,5.00
2011,04,23,05,26,5.00
2011,04,23,05,27,5.00
2011,04,23,05,28,5.00
2011,04,23,05,29,5.00
2011,04,23,05,30,5.00
2011,04,23,05,31,5.00
2011,04,23,05,32,5.00
2011,04,23,05,33,5.00
2011,04,23,05,34,5.00
2011,04,23,05,35,5.00
2011,04,23,05,36,5.00
2011,04,23,05,37,5.10
2011,04,23,05,38,5.10
2011,04,23,05,39,5.10
2011,04,23,05,40,5.10
2011,04,23,05,41,5.10
2011,04,23,05,42,5.10
2011,04,23,05,43,5.10
2011,04,23,05,44,5.20
2011,04,23,05,45,5.20
2011,04,23,05,46,5.20
2011,04,23,05,47,5.30
2011,04,23,05,48,5.30
2011,04,23,05,49,5.30
2011,04,23,05,50,5.30
2011,04,23,05,51,5.30
2011,04,23,05,52,5.30
2011,04,23,05,53,5.30
2011,04,23,05,54,5.30
2011,04,23,05,55,5.30
2011,04,23,05,56,5.30
2011,04,23,05,57,5.30
2011,04,23,05,58,5.30
2011,04,23,05,59,5.30
2011,04,23,06,00,5.30
2011,04,23,06,01,5.30
2011,04,23,06,02,5.30
2011,04,23,06,03,5.40
2011,04,23,06,04,5.40
2011,04,23,06,05,5.40
2011,04,23,06,06,5.40
2011,04,23,06,07,5.50
2011,04,23,06,08,5.50
2011,04,23,06,09,5.50
2011,04,23,06,10,5.50
2011,04,23,06,11,5.50
2011,04,23,06,12,5.60
2011,04,23,06,13,5.60
2011,04,23,06,14,5.60
2011,04,23,06,15,5.60
2011,04,23,06,16,5.60
2011,04,23,06,17,5.60
2011,04,23,06,18,5.50
2011,04,23,06,19,5.50
2011,04,23,06,20,5.50
2011,04,23,06,21,5.50
2011,04,23,06,22,5.50
2011,04,23,06,23,5.50
2011,04,23,06,24,5.50
2011,04,23,06,25,5.40
2011,04,23,06,26,5.40
2011,04,23,06,27,5.40
2011,04,23,06,28,5.40
2011,04,23,06,29,5.40
2011,04,23,06,30,5.40
2011,04,23,06,31,5.40
2011,04,23,06,32,5.40
2011,04,23,06,33,5.40
2011,04,23,06,34,5.40
2011,04,23,06,35,5.50
2011,04,23,06,36,5.50
2011,04,23,06,37,5.50
2011,04,23,06,38,5.50
2011,04,23,06,39,5.50
2011,04,23,06,40,5.60
2011,04,23,06,41,5.60
2011,04,23,06,42,5.60
2011,04,23,06,43,5.60
2011,04,23,06,44,5.60
2011,04,23,06,45,5.60
2011,04,23,06,46,5.60
2011,04,23,06,47,5.60
2011,04,23,06,48,5.50
2011,04,23,06,49,5.60
2011,04,23,06,50,5.60
2011,04,23,06,51,5.60
2011,04,23,06,52,5.60
2011,04,23,06,53,5.60
2011,04,23,06,54,5.60
2011,04,23,06,55,5.60
2011,04,23,06,56,5.60
2011,04,23,06,57,5.60
2011,04,23,06,58,5.60
2011,04,23,06,59,5.60
2011,04,23,07,00,5.60
2011,04,23,07,01,5.60
2011,04,23,07,02,5.60
2011,04,23,07,03,5.60
2011,04,23,07,04,5.60
2011,04,23,07,05,5.70
2011,04,23,07,06,5.70
2011,04,23,07,07,5.70
2011,04,23,07,08,5.70
2011,04,23,07,09,5.70
2011,04,23,07,10,5.70
2011,04,23,07,11,5.70
2011,04,23,07,12,5.70
2011,04,23,07,13,5.70
2011,04,23,07,14,5.70
2011,04,23,07,15,5.70
2011,04,23,07,16,5.70
2011,04,23,07,17,5.70
2011,04,23,07,18,5.80
2011,04,23,07,19,5.80
2011,04,23,07,20,5.80
2011,04,23,07,21,5.80
2011,04,23,07,22,5.90
2011,04,23,07,23,5.90
2011,04,23,07,24,5.90
2011,04,23,07,25,6.00
2011,04,23,07,26,6.00
2011,04,23,07,27,6.10
2011,04,23,07,28,6.10
2011,04,23,07,29,6.20
2011,04,23,07,30,6.20
2011,04,23,07,31,6.30
2011,04,23,07,32,6.30
2011,04,23,07,33,6.30
2011,04,23,07,34,6.40
2011,04,23,07,35,6.40
2011,04,23,07,36,6.50
2011,04,23,07,37,6.50
2011,04,23,07,38,6.60
2011,04,23,07,39,6.60
2011,04,23,07,40,6.60
2011,04,23,07,41,6.70
2011,04,23,07,42,6.70
2011,04,23,07,43,6.80
2011,04,23,07,44,6.80
2011,04,23,07,45,6.90
2011,04,23,07,46,6.90
2011,04,23,07,47,6.90
2011,04,23,07,48,7.00
2011,04,23,07,49,7.10
2011,04,23,07,50,7.20
2011,04,23,07,51,7.20
2011,04,23,07,52,7.20
2011,04,23,07,53,7.30
2011,04,23,07,54,7.30
2011,04,23,07,55,7.30
2011,04,23,07,56,7.40
2011,04,23,07,57,7.40
2011,04,23,07,58,7.40
2011,04,23,07,59,7.40
2011,04,23,08,00,7.50
2011,04,23,08,01,7.50
2011,04,23,08,02,7.60
2011,04,23,08,03,7.60
2011,04,23,08,04,7.70
2011,04,23,08,05,7.80
2011,04,23,08,06,7.80
2011,04,23,08,07,7.90
2011,04,23,08,08,7.90
2011,04,23,08,09,8.00
2011,04,23,08,10,8.00
2011,04,23,08,11,8.10
2011,04,23,08,12,8.10
2011,04,23,08,13,8.10
2011,04,23,08,14,8.10
2011,04,23,08,15,8.20
2011,04,23,08,16,8.20
2011,04,23,08,17,8.20
2011,04,23,08,18,8.20
2011,04,23,08,19,8.30
2011,04,23,08,20,8.30
2011,04,23,08,21,8.40
2011,04,23,08,22,8.40
2011,04,23,08,23,8.30
2011,04,23,08,24,8.40
2011,04,23,08,25,8.40
2011,04,23,08,26,8.40
2011,04,23,08,27,8.40
2011,04,23,08,28,8.40
2011,04,23,08,29,8.40
2011,04,23,08,30,8.40
2011,04,23,08,31,8.40
2011,04,23,08,32,8.50
2011,04,23,08,33,8.50
2011,04,23,08,34,8.50
2011,04,23,08,35,8.50
2011,04,23,08,36,8.60
2011,04,23,08,37,8.60
2011,04,23,08,38,8.60
2011,04,23,08,39,8.50
2011,04,23,08,40,8.50
2011,04,23,08,41,8.50
2011,04,23,08,42,8.50
2011,04,23,08,43,8.50
2011,04,23,08,44,8.50
2011,04,23,08,45,8.50
2011,04,23,08,46,8.50
2011,04,23,08,47,8.60
2011,04,23,08,48,8.60
2011,04,23,08,49,8.60
2011,04,23,08,50,8.60
2011,04,23,08,51,8.60
2011,04,23,08,52,8.60
2011,04,23,08,53,8.60
2011,04,23,08,54,8.60
2011,04,23,08,55,8.60
2011,04,23,08,56,8.70
2011,04,23,08,57,8.70
2011,04,23,08,58,8.70
2011,04,23,08,59,8.70
2011,04,23,09,00,8.80
2011,04,23,09,01,8.80
2011,04,23,09,02,8.80
2011,04,23,09,03,8.80
2011,04,23,09,04,8.90
2011,04,23,09,05,8.90
2011,04,23,09,06,8.90
2011,04,23,09,07,8.90
2011,04,23,09,08,8.90
2011,04,23,09,09,8.90
2011,04,23,09,10,8.80
2011,04,23,09,11,8.80
2011,04,23,09,12,8.80
2011,04,23,09,13,8.80
2011,04,23,09,14,8.80
2011,04,23,09,15,8.80
2011,04,23,09,16,8.80
2011,04,23,09,17,8.80
2011,04,23,09,18,8.80
2011,04,23,09,19,8.80
2011,04,23,09,20,8.80
2011,04,23,09,21,8.70
2011,04,23,09,22,8.70
2011,04,23,09,23,8.70
2011,04,23,09,24,8.70
2011,04,23,09,25,8.70
2011,04,23,09,26,8.80
2011,04,23,09,27,8.80
2011,04,23,09,28,8.80
2011,04,23,09,29,8.80
2011,04,23,09,30,8.80
2011,04,23,09,31,8.80
2011,04,23,09,32,8.80
2011,04,23,09,33,8.80
2011,04,23,09,34,8.80
2011,04,23,09,35,8.90
2011,04,23,09,36,8.90
2011,04,23,09,37,9.00
2011,04,23,09,38,9.00
2011,04,23,09,39,9.00
2011,04,23,09,40,9.00
2011,04,23,09,41,9.00
2011,04,23,09,42,9.10
2011,04,23,09,43,9.20
2011,04,23,09,44,9.20
2011,04,23,09,45,9.20
2011,04,23,09,46,9.30
2011,04,23,09,47,9.30
2011,04,23,09,48,9.30
2011,04,23,09,49,9.30
2011,04,23,09,50,9.30
2011,04,23,09,51,9.20
2011,04,23,09,52,9.20
2011,04,23,09,53,9.20
2011,04,23,09,54,9.30
2011,04,23,09,55,9.30
2011,04,23,09,56,9.40
2011,04,23,09,57,9.40
2011,04,23,09,58,9.40
2011,04,23,09,59,9.50
2011,04,23,10,00,9.50
2011,04,23,10,01,9.40
2011,04,23,10,02,9.50
2011,04,23,10,03,9.50
2011,04,23,10,04,9.40
2011,04,23,10,05,9.50
2011,04,23,10,06,9.40
2011,04,23,10,07,9.40
2011,04,23,10,08,9.40
2011,04,23,10,09,9.50
2011,04,23,10,10,9.50
2011,04,23,10,11,9.50
2011,04,23,10,12,9.40
2011,04,23,10,13,9.40
2011,04,23,10,14,9.50
2011,04,23,10,15,9.60
2011,04,23,10,16,9.60
2011,04,23,10,17,9.60
2011,04,23,10,18,9.60
2011,04,23,10,19,9.60
2011,04,23,10,20,9.60
2011,04,23,10,21,9.70
2011,04,23,10,22,9.80
2011,04,23,10,23,9.70
2011,04,23,10,24,9.70
2011,04,23,10,25,9.70
2011,04,23,10,26,9.80
2011,04,23,10,27,9.90
2011,04,23,10,28,9.90
2011,04,23,10,29,9.90
2011,04,23,10,30,9.80
2011,04,23,10,31,9.80
2011,04,23,10,32,9.90
2011,04,23,10,33,9.90
2011,04,23,10,34,9.90
2011,04,23,10,35,10.00
2011,04,23,10,36,10.00
2011,04,23,10,37,10.00
2011,04,23,10,38,9.90
2011,04,23,10,39,9.90
2011,04,23,10,40,9.80
2011,04,23,10,41,9.80
2011,04,23,10,42,9.80
2011,04,23,10,43,9.80
2011,04,23,10,44,9.80
2011,04,23,10,45,9.80
2011,04,23,10,46,9.80
2011,04,23,10,47,9.70
2011,04,23,10,48,9.80
2011,04,23,10,49,9.80
2011,04,23,10,50,9.90
2011,04,23,10,51,10.00
2011,04,23,10,52,10.10
2011,04,23,10,53,10.20
2011,04,23,10,54,10.20
2011,04,23,10,55,10.20
2011,04,23,10,56,10.20
2011,04,23,10,57,10.30
2011,04,23,10,58,10.20
2011,04,23,10,59,10.10
2011,04,23,11,00,10.10
2011,04,23,11,01,10.00
2011,04,23,11,02,10.00
2011,04,23,11,03,9.90
2011,04,23,11,04,10.00
2011,04,23,11,05,10.10
2011,04,23,11,06,10.20
2011,04,23,11,07,10.30
2011,04,23,11,08,10.40
2011,04,23,11,09,10.30
2011,04,23,11,10,10.30
2011,04,23,11,11,10.30
2011,04,23,11,12,10.40
2011,04,23,11,13,10.40
2011,04,23,11,14,10.50
2011,04,23,11,15,10.60
2011,04,23,11,16,10.70
2011,04,23,11,17,10.80
2011,04,23,11,18,10.80
2011,04,23,11,19,10.70
2011,04,23,11,20,10.70
2011,04,23,11,21,10.60
2011,04,23,11,22,10.70
2011,04,23,11,23,10.80
2011,04,23,11,24,10.80
2011,04,23,11,25,10.80
2011,04,23,11,26,10.80
2011,04,23,11,27,10.70
2011,04,23,11,28,10.70
2011,04,23,11,29,10.70
2011,04,23,11,30,10.70
2011,04,23,11,31,10.70
2011,04,23,11,32,10.70
2011,04,23,11,33,10.70
2011,04,23,11,34,10.70
2011,04,23,11,35,10.80
2011,04,23,11,36,10.80
2011,04,23,11,37,10.90
2011,04,23,11,38,10.90
2011,04,23,11,39,10.90
2011,04,23,11,40,10.90
2011,04,23,11,41,10.90
2011,04,23,11,42,10.90
2011,04,23,11,43,10.90
2011,04,23,11,44,10.90
2011,04,23,11,45,11.00
2011,04,23,11,46,11.10
2011,04,23,11,47,11.10
2011,04,23,11,48,11.00
2011,04,23,11,49,10.90
2011,04,23,11,50,10.80
2011,04,23,11,51,10.80
2011,04,23,11,52,10.90
2011,04,23,11,53,10.90
2011,04,23,11,54,11.00
2011,04,23,11,55,11.00
2011,04,23,11,56,11.00
2011,04,23,11,57,11.10
2011,04,23,11,58,11.20
2011,04,23,11,59,11.20
2011,04,23,12,00,11.30
2011,04,23,12,01,11.20
2011,04,23,12,02,11.20
2011,04,23,12,03,11.20
2011,04,23,12,04,11.10
2011,04,23,12,05,11.10
2011,04,23,12,06,11.10
2011,04,23,12,07,11.10
2011,04,23,12,08,11.10
2011,04,23,12,09,11.10
2011,04,23,12,10,11.10
2011,04,23,12,11,11.10
2011,04,23,12,12,11.20
2011,04,23,12,13,11.30
2011,04,23,12,14,11.30
2011,04,23,12,15,11.40
2011,04,23,12,16,11.40
2011,04,23,12,17,11.40
2011,04,23,12,18,11.50
2011,04,23,12,19,11.60
2011,04,23,12,20,11.60
2011,04,23,12,21,11.70
2011,04,23,12,22,11.70
2011,04,23,12,23,11.70
2011,04,23,12,24,11.80
2011,04,23,12,25,11.70
2011,04,23,12,26,11.70
2011,04,23,12,27,11.70
2011,04,23,12,28,11.60
2011,04,23,12,29,11.70
2011,04,23,12,30,11.80
2011,04,23,12,31,11.90
2011,04,23,12,32,11.90
2011,04,23,12,33,11.90
2011,04,23,12,34,11.90
2011,04,23,12,35,11.90
2011,04,23,12,36,11.90
2011,04,23,12,37,11.90
2011,04,23,12,38,11.90
2011,04,23,12,39,11.90
2011,04,23,12,40,11.90
2011,04,23,12,41,11.90
2011,04,23,12,42,11.90
2011,04,23,12,43,11.90
2011,04,23,12,44,11.90
2011,04,23,12,45,11.80
2011,04,23,12,46,11.80
2011,04,23,12,47,11.80
2011,04,23,12,48,11.80
2011,04,23,12,49,11.90
2011,04,23,12,50,12.00
2011,04,23,12,51,12.10
2011,04,23,12,52,12.10
2011,04,23,12,53,12.20
2011,04,23,12,54,12.20
2011,04,23,12,55,12.20
2011,04,23,12,56,12.30
2011,04,23,12,57,12.40
2011,04,23,12,58,12.40
2011,04,23,12,59,12.40
2011,04,23,13,00,12.40
2011,04,23,13,01,12.40
2011,04,23,13,02,12.40
2011,04,23,13,03,12.30
2011,04,23,13,04,12.40
2011,04,23,13,05,12.50
2011,04,23,13,06,12.50
2011,04,23,13,07,12.50
2011,04,23,13,08,12.50
2011,04,23,13,09,12.50
2011,04,23,13,10,12.60
2011,04,23,13,11,12.60
2011,04,23,13,12,12.60
2011,04,23,13,13,12.60
2011,04,23,13,14,12.70
2011,04,23,13,15,12.70
2011,04,23,13,16,12.70
2011,04,23,13,17,12.70
2011,04,23,13,18,12.70
2011,04,23,13,19,12.70
2011,04,23,13,20,12.70
2011,04,23,13,21,12.70
2011,04,23,13,22,12.70
2011,04,23,13,23,12.80
2011,04,23,13,24,12.80
2011,04,23,13,25,12.90
2011,04,23,13,26,13.00
2011,04,23,13,27,13.10
2011,04,23,13,28,13.10
2011,04,23,13,29,13.10
2011,04,23,13,30,12.90
2011,04,23,13,31,12.90
2011,04,23,13,32,12.90
2011,04,23,13,33,12.90
2011,04,23,13,34,12.80
2011,04,23,13,35,12.80
2011,04,23,13,36,12.80
2011,04,23,13,37,12.80
2011,04,23,13,38,12.90
2011,04,23,13,39,12.90
2011,04,23,13,40,13.00
2011,04,23,13,41,13.00
2011,04,23,13,42,13.10
2011,04,23,13,43,13.10
2011,04,23,13,44,13.20
2011,04,23,13,45,13.30
2011,04,23,13,46,13.30
2011,04,23,13,47,13.40
2011,04,23,13,48,13.30
2011,04,23,13,49,13.30
2011,04,23,13,50,13.30
2011,04,23,13,51,13.30
2011,04,23,13,52,13.40
2011,04,23,13,53,13.30
2011,04,23,13,54,13.30
2011,04,23,13,55,13.20
2011,04,23,13,56,13.20
2011,04,23,13,57,13.20
2011,04,23,13,58,13.20
2011,04,23,13,59,13.20
2011,04,23,14,00,13.20
2011,04,23,14,01,13.20
2011,04,23,14,02,13.20
2011,04,23,14,03,13.20
2011,04,23,14,04,13.20
2011,04,23,14,05,13.30
2011,04,23,14,06,13.30
2011,04,23,14,07,13.40
2011,04,23,14,08,13.40
2011,04,23,14,09,13.40
2011,04,23,14,10,13.40
2011,04,23,14,11,13.40
2011,04,23,14,12,13.50
2011,04,23,14,13,13.50
2011,04,23,14,14,13.50
2011,04,23,14,15,13.60
2011,04,23,14,16,13.60
2011,04,23,14,17,13.70
2011,04,23,14,18,13.80
2011,04,23,14,19,13.80
2011,04,23,14,20,13.80
2011,04,23,14,21,13.80
2011,04,23,14,22,13.80
2011,04,23,14,23,13.80
2011,04,23,14,24,13.70
2011,04,23,14,25,13.70
2011,04,23,14,26,13.70
2011,04,23,14,27,13.70
2011,04,23,14,28,13.70
2011,04,23,14,29,13.70
2011,04,23,14,30,13.80
2011,04,23,14,31,13.80
2011,04,23,14,32,13.70
2011,04,23,14,33,13.60
2011,04,23,14,34,13.60
2011,04,23,14,35,13.50
2011,04,23,14,36,13.60
2011,04,23,14,37,13.70
2011,04,23,14,38,13.70
2011,04,23,14,39,13.70
2011,04,23,14,40,13.80
2011,04,23,14,41,13.90
2011,04,23,14,42,14.00
2011,04,23,14,43,14.00
2011,04,23,14,44,14.10
2011,04,23,14,45,14.10
2011,04,23,14,46,14.10
2011,04,23,14,47,14.10
2011,04,23,14,48,14.20
2011,04,23,14,49,14.10
2011,04,23,14,50,14.10
2011,04,23,14,51,14.10
2011,04,23,14,52,14.10
2011,04,23,14,53,14.20
2011,04,23,14,54,14.10
2011,04,23,14,55,14.10
2011,04,23,14,56,14.10
2011,04,23,14,57,14.20
2011,04,23,14,58,14.30
2011,04,23,14,59,14.30
2011,04,23,15,00,14.40
2011,04,23,15,01,14.50
2011,04,23,15,02,14.70
2011,04,23,15,03,14.60
2011,04,23,15,04,14.50
2011,04,23,15,05,14.30
2011,04,23,15,06,14.20
2011,04,23,15,07,14.20
2011,04,23,15,08,14.20
2011,04,23,15,09,14.20
2011,04,23,15,10,14.20
2011,04,23,15,11,14.20
2011,04,23,15,12,14.30
2011,04,23,15,13,14.40
2011,04,23,15,14,14.50
2011,04,23,15,15,14.60
2011,04,23,15,16,14.50
2011,04,23,15,17,14.50
2011,04,23,15,18,14.50
2011,04,23,15,19,14.50
2011,04,23,15,20,14.40
2011,04,23,15,21,14.30
2011,04,23,15,22,14.30
2011,04,23,15,23,14.30
2011,04,23,15,24,14.30
2011,04,23,15,25,14.20
2011,04,23,15,26,14.20
2011,04,23,15,27,14.20
2011,04,23,15,28,14.20
2011,04,23,15,29,14.20
2011,04,23,15,30,14.20
2011,04,23,15,31,14.20
2011,04,23,15,32,14.20
2011,04,23,15,33,14.20
2011,04,23,15,34,14.10
2011,04,23,15,35,14.20
2011,04,23,15,36,14.20
2011,04,23,15,37,14.20
2011,04,23,15,38,14.20
2011,04,23,15,39,14.20
2011,04,23,15,40,14.30
2011,04,23,15,41,14.30
2011,04,23,15,42,14.30
2011,04,23,15,43,14.50
2011,04,23,15,44,14.60
2011,04,23,15,45,14.70
2011,04,23,15,46,14.80
2011,04,23,15,47,14.80
2011,04,23,15,48,14.70
2011,04,23,15,49,14.70
2011,04,23,15,50,14.80
2011,04,23,15,51,14.80
2011,04,23,15,52,14.70
2011,04,23,15,53,14.60
2011,04,23,15,54,14.60
2011,04,23,15,55,14.50
2011,04,23,15,56,14.50
2011,04,23,15,57,14.40
2011,04,23,15,58,14.40
2011,04,23,15,59,14.30
2011,04,23,16,00,14.20
2011,04,23,16,01,14.20
2011,04,23,16,02,14.30
2011,04,23,16,03,14.30
2011,04,23,16,04,14.40
2011,04,23,16,05,14.50
2011,04,23,16,06,14.50
2011,04,23,16,07,14.40
2011,04,23,16,08,14.40
2011,04,23,16,09,14.30
2011,04,23,16,10,14.10
2011,04,23,16,11,14.10
2011,04,23,16,12,14.10
2011,04,23,16,13,14.10
2011,04,23,16,14,14.20
2011,04,23,16,15,14.20
2011,04,23,16,16,14.30
2011,04,23,16,17,14.40
2011,04,23,16,18,14.40
2011,04,23,16,19,14.40
2011,04,23,16,20,14.40
2011,04,23,16,21,14.20
2011,04,23,16,22,14.10
2011,04,23,16,23,14.00
2011,04,23,16,24,14.00
2011,04,23,16,25,14.00
2011,04,23,16,26,14.00
2011,04,23,16,27,14.00
2011,04,23,16,28,14.00
2011,04,23,16,29,14.00
2011,04,23,16,30,14.00
2011,04,23,16,31,14.10
2011,04,23,16,32,14.00
2011,04,23,16,33,14.00
2011,04,23,16,34,14.10
2011,04,23,16,35,14.00
2011,04,23,16,36,14.00
2011,04,23,16,37,14.00
2011,04,23,16,38,14.00
2011,04,23,16,39,14.00
2011,04,23,16,40,14.10
2011,04,23,16,41,14.10
2011,04,23,16,42,14.00
2011,04,23,16,43,14.00
2011,04,23,16,44,14.10
2011,04,23,16,45,14.10
2011,04,23,16,46,14.20
2011,04,23,16,47,14.20
2011,04,23,16,48,14.20
2011,04,23,16,49,14.10
2011,04,23,16,50,14.00
2011,04,23,16,51,14.00
2011,04,23,16,52,14.10
2011,04,23,16,53,14.10
2011,04,23,16,54,14.10
2011,04,23,16,55,14.10
2011,04,23,16,56,14.10
2011,04,23,16,57,14.10
2011,04,23,16,58,14.00
2011,04,23,16,59,14.00
2011,04,23,17,00,14.00
2011,04,23,17,01,14.00
2011,04,23,17,02,13.90
2011,04,23,17,03,13.90
2011,04,23,17,04,13.80
2011,04,23,17,05,13.70
2011,04,23,17,06,13.60
2011,04,23,17,07,13.60
2011,04,23,17,08,13.50
2011,04,23,17,09,13.30
2011,04,23,17,10,13.20
2011,04,23,17,11,13.20
2011,04,23,17,12,13.20
2011,04,23,17,13,13.20
2011,04,23,17,14,13.30
2011,04,23,17,15,13.30
2011,04,23,17,16,13.30
2011,04,23,17,17,13.30
2011,04,23,17,18,13.30
2011,04,23,17,19,13.20
2011,04,23,17,20,13.20
2011,04,23,17,21,13.20
2011,04,23,17,22,13.10
2011,04,23,17,23,12.90
2011,04,23,17,24,12.80
2011,04,23,17,25,12.80
2011,04,23,17,26,12.80
2011,04,23,17,27,12.80
2011,04,23,17,28,12.80
2011,04,23,17,29,12.90
2011,04,23,17,30,13.00
2011,04,23,17,31,13.00
2011,04,23,17,32,13.10
2011,04,23,17,33,13.10
2011,04,23,17,34,13.20
2011,04,23,17,35,13.30
2011,04,23,17,36,13.20
2011,04,23,17,37,13.10
2011,04,23,17,38,13.10
2011,04,23,17,39,13.00
2011,04,23,17,40,12.90
2011,04,23,17,41,12.80
2011,04,23,17,42,12.90
2011,04,23,17,43,12.90
2011,04,23,17,44,12.90
2011,04,23,17,45,13.00
2011,04,23,17,46,13.10
2011,04,23,17,47,13.20